Location: Home
(42.5358°N, 72.7383°W)
Time: 08:43:11
(UTC-05:00)

deb Explorer IX - Pass Details

Date: 07 December 2021
Orbit: 544 x 1082 km, 38.8° (Epoch: 19 January)

Event Time Altitude Azimuth Distance (km) Brightness Sun altitude
Rises 14:12:10 0° 266° (W) 2,759 ? 16.2°
Reaches altitude 10° 14:16:00 10° 231° (SW) 1,810 ? 15.8°
Maximum altitude 14:17:15 11° 213° (SSW) 1,727 ? 15.7°
Drops below altitude 10° 14:18:28 10° 195° (SSW) 1,797 ? 15.5°
Sets 14:22:15 0° 160° (SSE) 2,700 ? 15.1°
